�������l�o���
Date,Time,MP-1(��Sv/h),MP-2(��Sv/h),MP-3(��Sv/h),MP-4(��Sv/h),MP-5(��Sv/h),MP-6(��Sv/h),MP-7(��Sv/h),MP-8(��Sv/h),����,����(m/s),���J
2020/10/20,00:00,0.650,0.928,0.590,1.138,0.816,0.378,0.661,0.624,�k��,5.4,��
2020/10/20,00:10,0.650,0.931,0.590,1.137,0.817,0.379,0.661,0.625,�k��,5.1,��
2020/10/20,00:20,0.650,0.928,0.590,1.140,0.815,0.379,0.660,0.625,�k��,5.2,��
2020/10/20,00:30,0.652,0.927,0.591,1.139,0.817,0.381,0.662,0.624,�k��,5.6,��
2020/10/20,00:40,0.650,0.931,0.589,1.140,0.818,0.378,0.660,0.627,�k��,5.9,��
2020/10/20,00:50,0.650,0.927,0.590,1.140,0.817,0.379,0.659,0.624,���k��,5.8,��
2020/10/20,01:00,0.649,0.928,0.591,1.138,0.817,0.378,0.661,0.625,�k��,6.5,��
2020/10/20,01:10,0.651,0.928,0.589,1.139,0.817,0.379,0.660,0.624,�k��,6.2,��
2020/10/20,01:20,0.651,0.929,0.590,1.138,0.816,0.379,0.660,0.625,�k��,6.0,��
2020/10/20,01:30,0.651,0.929,0.590,1.139,0.817,0.378,0.660,0.624,�k��,6.3,��
2020/10/20,01:40,0.650,0.928,0.590,1.138,0.818,0.377,0.660,0.624,�k��,6.7,��
2020/10/20,01:50,0.649,0.931,0.590,1.139,0.817,0.379,0.661,0.624,�k��,6.5,��
2020/10/20,02:00,0.651,0.928,0.590,1.138,0.818,0.380,0.660,0.625,�k��,6.0,��
2020/10/20,02:10,0.651,0.929,0.589,1.139,0.816,0.379,0.660,0.624,�k��,6.3,��
2020/10/20,02:20,0.650,0.930,0.590,1.138,0.816,0.379,0.660,0.625,�k��,5.8,��
2020/10/20,02:30,0.652,0.928,0.590,1.138,0.816,0.381,0.660,0.625,�k��,6.1,��
2020/10/20,02:40,0.649,0.926,0.590,1.138,0.816,0.380,0.660,0.625,�k��,6.0,��
2020/10/20,02:50,0.650,0.929,0.588,1.138,0.816,0.378,0.661,0.626,�k��,5.8,��
2020/10/20,03:00,0.649,0.926,0.588,1.138,0.818,0.379,0.660,0.624,�k��,5.0,��
2020/10/20,03:10,0.650,0.927,0.590,1.139,0.816,0.378,0.659,0.627,�k��,4.8,��
2020/10/20,03:20,0.649,0.928,0.591,1.139,0.817,0.378,0.660,0.626,�k��,5.7,��
2020/10/20,03:30,0.651,0.930,0.589,1.138,0.817,0.381,0.661,0.625,�k��,6.6,��
2020/10/20,03:40,0.651,0.928,0.590,1.137,0.817,0.379,0.659,0.625,�k��,7.2,��
2020/10/20,03:50,0.651,0.927,0.588,1.138,0.816,0.380,0.661,0.625,�k��,6.0,��
2020/10/20,04:00,0.651,0.928,0.591,1.141,0.815,0.380,0.660,0.626,�k��,6.7,��
2020/10/20,04:10,0.651,0.927,0.590,1.139,0.815,0.378,0.660,0.625,�k��,6.1,��
2020/10/20,04:20,0.650,0.929,0.590,1.139,0.816,0.381,0.661,0.625,�k��,6.4,��
2020/10/20,04:30,0.650,0.929,0.589,1.140,0.819,0.379,0.660,0.625,�k��,6.4,��
2020/10/20,04:40,0.650,0.927,0.590,1.139,0.816,0.379,0.661,0.625,�k��,6.8,��
2020/10/20,04:50,0.651,0.927,0.589,1.139,0.816,0.379,0.660,0.624,�k��,7.3,��
2020/10/20,05:00,0.650,0.929,0.590,1.140,0.816,0.380,0.662,0.626,�k��,7.9,��
2020/10/20,05:10,0.649,0.927,0.590,1.141,0.817,0.379,0.661,0.625,�k��,7.5,��
2020/10/20,05:20,0.651,0.927,0.588,1.141,0.815,0.379,0.660,0.625,�k��,7.5,��
2020/10/20,05:30,0.650,0.929,0.589,1.138,0.816,0.380,0.661,0.625,�k��,6.9,��
2020/10/20,05:40,0.650,0.928,0.590,1.138,0.817,0.380,0.660,0.626,�k��,7.0,��
2020/10/20,05:50,0.651,0.927,0.590,1.139,0.817,0.380,0.660,0.625,�k��,7.5,��
2020/10/20,06:00,0.650,0.927,0.591,1.140,0.816,0.379,0.662,0.624,�k��,7.3,��
2020/10/20,06:10,0.651,0.928,0.589,1.139,0.816,0.379,0.660,0.625,�k��,6.7,��
2020/10/20,06:20,0.651,0.929,0.589,1.142,0.814,0.379,0.660,0.624,�k��,6.5,��
2020/10/20,06:30,0.651,0.927,0.589,1.139,0.817,0.381,0.660,0.625,�k��,6.0,��
2020/10/20,06:40,0.651,0.929,0.591,1.139,0.817,0.381,0.661,0.625,�k��,6.5,��
2020/10/20,06:50,0.653,0.929,0.590,1.139,0.816,0.379,0.660,0.624,�k��,5.9,��
2020/10/20,07:00,0.651,0.927,0.591,1.139,0.815,0.379,0.659,0.625,�k��,6.1,��
2020/10/20,07:10,0.650,0.929,0.590,1.140,0.818,0.378,0.662,0.625,�k��,5.6,��
2020/10/20,07:20,0.650,0.931,0.591,1.138,0.816,0.379,0.662,0.625,�k��,4.9,��
2020/10/20,07:30,0.652,0.930,0.590,1.138,0.816,0.379,0.661,0.625,�k��,4.6,��
2020/10/20,07:40,0.651,0.929,0.591,1.139,0.817,0.379,0.662,0.625,�k��,4.5,��
2020/10/20,07:50,0.651,0.927,0.590,1.139,0.818,0.379,0.662,0.624,�k�k��,3.2,��
2020/10/20,08:00,0.651,0.928,0.590,1.141,0.818,0.380,0.661,0.627,�k�k��,5.0,��
2020/10/20,08:10,0.653,0.928,0.591,1.142,0.818,0.381,0.662,0.627,�k�k��,3.7,��
2020/10/20,08:20,0.653,0.930,0.592,1.141,0.818,0.379,0.661,0.625,�k�k��,2.8,��
2020/10/20,08:30,0.653,0.930,0.592,1.141,0.820,0.380,0.660,0.626,�k�k��,3.5,��
2020/10/20,08:40,0.654,0.926,0.591,1.142,0.817,0.380,0.658,0.624,�k,3.5,��
2020/10/20,08:50,0.655,0.927,0.591,1.139,0.818,0.381,0.658,0.626,�k�k��,3.0,��
2020/10/20,09:00,0.654,0.929,0.590,1.139,0.819,0.380,0.659,0.626,�k,2.6,��
2020/10/20,09:10,0.653,0.925,0.593,1.140,0.818,0.380,0.660,0.627,�k�k��,3.6,��
2020/10/20,09:20,0.653,0.923,0.592,1.139,0.818,0.379,0.661,0.626,�k,3.0,��
2020/10/20,09:30,0.653,0.922,0.590,1.138,0.818,0.378,0.659,0.624,�k�k��,2.6,��
2020/10/20,09:40,0.650,0.926,0.592,1.140,0.816,0.379,0.660,0.624,�k�k��,4.3,�L
2020/10/20,09:50,0.651,0.926,0.591,1.141,0.818,0.379,0.660,0.626,�k��,4.9,��
2020/10/20,10:00,0.653,0.923,0.591,1.142,0.816,0.378,0.660,0.624,�k�k��,6.0,��
2020/10/20,10:10,0.651,0.926,0.591,1.141,0.816,0.378,0.661,0.624,�k�k��,5.7,��
2020/10/20,10:20,0.653,0.926,0.590,1.142,0.817,0.380,0.661,0.622,�k�k��,5.4,��
2020/10/20,10:30,0.651,0.927,0.589,1.140,0.817,0.379,0.659,0.624,�k,5.3,��
2020/10/20,10:40,0.652,0.929,0.590,1.141,0.819,0.379,0.661,0.625,�k�k��,6.6,��
2020/10/20,10:50,0.651,0.927,0.591,1.139,0.818,0.378,0.661,0.623,�k�k��,6.1,��
2020/10/20,11:00,0.654,0.929,0.591,1.143,0.819,0.378,0.662,0.625,�k�k��,5.7,��
2020/10/20,11:10,0.653,0.928,0.588,1.138,0.818,0.377,0.660,0.624,�k�k��,6.2,��
2020/10/20,11:20,0.651,0.928,0.590,1.137,0.819,0.380,0.661,0.623,�k�k��,6.4,��
2020/10/20,11:30,0.652,0.929,0.590,1.140,0.819,0.378,0.662,0.624,�k�k��,6.2,��
2020/10/20,11:40,0.656,0.926,0.590,1.140,0.819,0.378,0.662,0.623,�k�k��,6.0,��
2020/10/20,11:50,0.653,0.931,0.589,1.140,0.818,0.379,0.661,0.624,�k�k��,6.5,��
2020/10/20,12:00,0.651,0.931,0.592,1.139,0.819,0.379,0.661,0.624,�k�k��,6.2,��
2020/10/20,12:10,0.652,0.930,0.590,1.144,0.820,0.380,0.662,0.622,�k�k��,6.3,��
2020/10/20,12:20,0.651,0.932,0.591,1.141,0.821,0.381,0.663,0.625,�k�k��,6.6,��
2020/10/20,12:30,0.653,0.929,0.591,1.142,0.820,0.382,0.661,0.623,�k�k��,6.2,��
2020/10/20,12:40,0.654,0.932,0.591,1.143,0.820,0.380,0.661,0.623,�k��,6.2,��
2020/10/20,12:50,0.653,0.932,0.592,1.140,0.821,0.379,0.661,0.624,�k�k��,5.2,��
2020/10/20,13:00,0.655,0.931,0.592,1.143,0.820,0.379,0.662,0.624,�k��,4.7,��
2020/10/20,13:10,0.653,0.928,0.592,1.144,0.820,0.381,0.660,0.624,�k��,5.0,��
2020/10/20,13:20,0.656,0.929,0.590,1.142,0.822,0.380,0.660,0.623,�k�k��,5.1,��
2020/10/20,13:30,0.654,0.928,0.592,1.143,0.821,0.379,0.661,0.625,�k��,4.3,��
2020/10/20,13:40,0.653,0.930,0.592,1.143,0.823,0.379,0.661,0.624,�k��,4.6,��
2020/10/20,13:50,0.652,0.929,0.591,1.143,0.823,0.381,0.661,0.625,�k��,3.8,��
2020/10/20,14:00,0.656,0.930,0.592,1.143,0.822,0.380,0.661,0.624,�k��,4.2,��
2020/10/20,14:10,0.653,0.928,0.592,1.144,0.823,0.380,0.662,0.625,�k��,4.4,��
2020/10/20,14:20,0.653,0.931,0.591,1.145,0.823,0.379,0.662,0.625,�k��,4.0,��
2020/10/20,14:30,0.654,0.931,0.592,1.140,0.822,0.381,0.663,0.623,�k��,3.4,��
2020/10/20,14:40,0.654,0.929,0.592,1.143,0.822,0.381,0.662,0.624,���k��,3.3,��
2020/10/20,14:50,0.654,0.929,0.591,1.143,0.821,0.377,0.661,0.625,�k��,3.0,��
2020/10/20,15:00,0.653,0.931,0.593,1.142,0.823,0.380,0.663,0.623,�k��,2.8,��
2020/10/20,15:10,0.651,0.930,0.592,1.143,0.819,0.379,0.660,0.623,�k��,1.9,��
2020/10/20,15:20,0.654,0.932,0.592,1.146,0.823,0.379,0.660,0.625,�k�k��,2.6,��
2020/10/20,15:30,0.652,0.933,0.595,1.144,0.824,0.380,0.661,0.623,�k��,2.0,��
2020/10/20,15:40,0.655,0.932,0.591,1.144,0.822,0.380,0.660,0.623,�k�k��,2.3,��
2020/10/20,15:50,0.654,0.933,0.594,1.143,0.823,0.382,0.662,0.625,�k�k��,2.5,��
2020/10/20,16:00,0.653,0.932,0.592,1.146,0.822,0.380,0.663,0.625,�k�k��,2.3,��
2020/10/20,16:10,0.653,0.932,0.593,1.145,0.822,0.380,0.662,0.624,�k�k��,2.3,��
2020/10/20,16:20,0.653,0.936,0.593,1.144,0.822,0.381,0.663,0.626,�k�k��,2.6,��
2020/10/20,16:30,0.655,0.933,0.592,1.143,0.823,0.381,0.663,0.626,�k�k��,3.0,��
2020/10/20,16:40,0.654,0.936,0.592,1.145,0.824,0.382,0.663,0.626,�k,3.3,��
2020/10/20,16:50,0.653,0.937,0.590,1.145,0.823,0.381,0.664,0.628,�k,3.1,��
2020/10/20,17:00,0.651,0.936,0.592,1.144,0.822,0.382,0.663,0.626,�k,3.8,��
2020/10/20,17:10,0.651,0.936,0.593,1.145,0.823,0.383,0.662,0.627,�k,3.3,��
2020/10/20,17:20,0.654,0.936,0.593,1.144,0.823,0.382,0.661,0.627,�k,4.4,��
2020/10/20,17:30,0.654,0.938,0.593,1.144,0.826,0.381,0.661,0.627,�k,3.6,��
2020/10/20,17:40,0.654,0.939,0.594,1.143,0.828,0.381,0.661,0.627,�k�k��,3.4,��
2020/10/20,17:50,0.655,0.938,0.592,1.144,0.826,0.383,0.662,0.626,�k�k��,3.2,��
2020/10/20,18:00,0.655,0.937,0.593,1.144,0.823,0.383,0.662,0.628,�k�k��,2.8,��
2020/10/20,18:10,0.653,0.939,0.593,1.144,0.822,0.382,0.663,0.627,�k�k��,3.1,��
2020/10/20,18:20,0.654,0.937,0.593,1.144,0.823,0.382,0.664,0.625,�k�k��,3.2,��
2020/10/20,18:30,0.654,0.937,0.592,1.144,0.823,0.380,0.662,0.627,�k��,3.5,��
2020/10/20,18:40,0.652,0.938,0.593,1.144,0.824,0.382,0.663,0.627,�k��,4.1,��
2020/10/20,18:50,0.653,0.935,0.592,1.147,0.824,0.380,0.662,0.626,�k��,3.6,��
2020/10/20,19:00,0.654,0.935,0.593,1.146,0.824,0.381,0.662,0.626,�k��,3.2,��
2020/10/20,19:10,0.655,0.936,0.593,1.143,0.825,0.381,0.663,0.627,�k,2.9,��
2020/10/20,19:20,0.653,0.938,0.593,1.144,0.827,0.380,0.663,0.627,�k�k��,3.2,��
2020/10/20,19:30,0.654,0.937,0.593,1.146,0.826,0.381,0.662,0.626,�k,3.1,��
2020/10/20,19:40,0.654,0.936,0.593,1.144,0.823,0.382,0.662,0.625,�k,3.1,��
2020/10/20,19:50,0.654,0.938,0.592,1.144,0.826,0.379,0.663,0.626,�k,2.8,��
2020/10/20,20:00,0.654,0.938,0.594,1.147,0.826,0.380,0.663,0.626,�k,3.6,��
2020/10/20,20:10,0.653,0.936,0.593,1.147,0.826,0.379,0.662,0.626,�k,4.2,��
2020/10/20,20:20,0.654,0.937,0.594,1.144,0.825,0.381,0.661,0.627,�k,3.2,��
2020/10/20,20:30,0.653,0.938,0.596,1.145,0.825,0.380,0.663,0.626,�k�k��,3.2,��
2020/10/20,20:40,0.653,0.938,0.594,1.146,0.823,0.380,0.662,0.627,�k�k��,3.7,��
2020/10/20,20:50,0.653,0.939,0.593,1.145,0.827,0.381,0.663,0.628,�k�k��,4.4,��
2020/10/20,21:00,0.655,0.936,0.590,1.149,0.824,0.380,0.663,0.627,�k�k��,3.0,��
2020/10/20,21:10,0.655,0.936,0.594,1.146,0.823,0.379,0.662,0.628,�k�k��,3.7,��
2020/10/20,21:20,0.654,0.936,0.593,1.145,0.824,0.380,0.662,0.628,�k�k��,3.6,��
2020/10/20,21:30,0.654,0.938,0.593,1.144,0.824,0.381,0.661,0.627,�k�k��,3.8,��
2020/10/20,21:40,0.655,0.939,0.593,1.147,0.823,0.381,0.663,0.626,�k�k��,4.2,��
2020/10/20,21:50,0.654,0.937,0.594,1.145,0.824,0.380,0.663,0.626,�k�k��,3.8,��
2020/10/20,22:00,0.652,0.936,0.594,1.145,0.825,0.381,0.662,0.627,�k�k��,4.1,��
2020/10/20,22:10,0.654,0.937,0.593,1.146,0.826,0.380,0.663,0.626,�k�k��,4.3,��
2020/10/20,22:20,0.653,0.937,0.594,1.145,0.823,0.381,0.662,0.627,�k�k��,4.3,��
2020/10/20,22:30,0.654,0.936,0.594,1.146,0.822,0.381,0.663,0.627,�k�k��,4.1,��
2020/10/20,22:40,0.654,0.938,0.592,1.146,0.826,0.379,0.663,0.626,�k�k��,4.4,��
2020/10/20,22:50,0.653,0.935,0.592,1.146,0.825,0.381,0.662,0.626,�k�k��,4.3,��
2020/10/20,23:00,0.655,0.935,0.594,1.145,0.823,0.381,0.663,0.625,�k�k��,4.4,��
2020/10/20,23:10,0.655,0.936,0.594,1.145,0.825,0.381,0.663,0.627,�k�k��,4.1,��
2020/10/20,23:20,0.653,0.938,0.593,1.146,0.826,0.380,0.661,0.628,�k�k��,4.4,��
2020/10/20,23:30,0.655,0.936,0.593,1.147,0.824,0.381,0.662,0.627,�k�k��,4.5,��
2020/10/20,23:40,0.653,0.937,0.593,1.147,0.825,0.381,0.662,0.626,�k�k��,4.6,��
2020/10/20,23:50,0.654,0.934,0.594,1.146,0.825,0.381,0.661,0.626,�k�k��,4.4,��
